Station History

Weather Underground - logo

Station Historical Data
Daily Summary for February 24, 2018 Units:  English    Metric   Both
« Previous Day
Next Day »
Daily Weekly Monthly Yearly Custom
  High: Low: Average:
Temperature: 58.1 °F 29.4 °F 44.3 °F
Dew Point: 34.5 °F 25.8 °F 29 °F
Humidity: 89 % 30 % 60 %
Wind Speed: 8.1 mph 0.0 mph 1.2 mph
Wind Gust: 8.1 mph - -
Wind:- - WSW
Pressure: 30.47 in 30.26 in -
Precipitation: 0.00 in    
Historical Graphs
 
 
Tabular Data for February 24, 2018
Time Temperature Dew Point Pressure Wind Wind Speed Wind Gust Humidity Rainfall Rate (Hourly)
00:00 33.6 °F 29.3 °F 30.42 in Calm     84 % 0.00 in
00:05 33.7 °F 29.4 °F 30.42 in Calm     84 % 0.00 in
00:10 33.9 °F 29.3 °F 30.42 in Calm     83 % 0.00 in
00:15 33.9 °F 29.3 °F 30.43 in Calm     83 % 0.00 in
00:20 33.4 °F 29.1 °F 30.43 in Calm     84 % 0.00 in
00:25 33.1 °F 29.4 °F 30.43 in Calm     86 % 0.00 in
00:30 33.1 °F 29.4 °F 30.43 in Calm     86 % 0.00 in
00:35 33.1 °F 29.4 °F 30.44 in Calm     86 % 0.00 in
00:40 33.1 °F 29.4 °F 30.43 in Calm     86 % 0.00 in
00:45 33.1 °F 29.1 °F 30.44 in Calm     85 % 0.00 in
00:51 33.0 °F 29.0 °F 30.44 in Calm     85 % 0.00 in
00:56 32.9 °F 28.9 °F 30.43 in Calm     85 % 0.00 in
01:01 32.8 °F 28.8 °F 30.43 in Calm     85 % 0.00 in
01:06 32.7 °F 28.7 °F 30.43 in Calm     85 % 0.00 in
01:11 32.5 °F 28.5 °F 30.43 in Calm     85 % 0.00 in
01:16 32.5 °F 28.5 °F 30.43 in Calm     85 % 0.00 in
01:21 32.4 °F 28.4 °F 30.43 in Calm     85 % 0.00 in
01:26 32.3 °F 28.3 °F 30.43 in Calm     85 % 0.00 in
01:31 32.3 °F 28.6 °F 30.43 in Calm     86 % 0.00 in
01:36 32.3 °F 28.6 °F 30.43 in Calm     86 % 0.00 in
01:41 32.2 °F 28.5 °F 30.43 in Calm     86 % 0.00 in
01:46 32.2 °F 28.8 °F 30.43 in Calm     87 % 0.00 in
01:51 32.1 °F 28.7 °F 30.43 in Calm     87 % 0.00 in
01:56 32.0 °F 28.6 °F 30.43 in Calm     87 % 0.00 in
02:01 32.0 °F 28.8 °F 30.43 in Calm     88 % 0.00 in
02:06 32.2 °F 28.8 °F 30.43 in Calm     87 % 0.00 in
02:11 32.1 °F 28.7 °F 30.43 in Calm     87 % 0.00 in
02:16 32.1 °F 28.9 °F 30.43 in Calm     88 % 0.00 in
02:21 32.0 °F 28.6 °F 30.43 in Calm     87 % 0.00 in
02:26 31.8 °F 28.4 °F 30.43 in Calm     87 % 0.00 in
02:31 31.7 °F 28.6 °F 30.43 in Calm     88 % 0.00 in
02:36 31.7 °F 28.6 °F 30.43 in Calm     88 % 0.00 in
02:41 31.7 °F 28.3 °F 30.43 in Calm     87 % 0.00 in
02:46 31.7 °F 28.3 °F 30.43 in Calm     87 % 0.00 in
02:51 31.5 °F 27.8 °F 30.43 in Calm     86 % 0.00 in
02:56 31.2 °F 27.5 °F 30.43 in Calm     86 % 0.00 in
03:01 31.2 °F 27.8 °F 30.43 in Calm     87 % 0.00 in
03:06 31.2 °F 27.8 °F 30.43 in Calm     87 % 0.00 in
03:11 31.3 °F 27.9 °F 30.43 in Calm     87 % 0.00 in
03:16 31.3 °F 27.9 °F 30.43 in Calm     87 % 0.00 in
03:21 31.4 °F 28.0 °F 30.43 in Calm     87 % 0.00 in
03:26 31.2 °F 27.8 °F 30.43 in Calm     87 % 0.00 in
03:31 31.1 °F 27.7 °F 30.43 in Calm     87 % 0.00 in
03:36 30.8 °F 27.4 °F 30.43 in Calm     87 % 0.00 in
03:41 30.8 °F 27.7 °F 30.43 in Calm     88 % 0.00 in
03:46 31.0 °F 27.9 °F 30.43 in Calm     88 % 0.00 in
03:51 31.3 °F 28.2 °F 30.43 in Calm     88 % 0.00 in
03:56 31.5 °F 28.1 °F 30.43 in Calm     87 % 0.00 in
04:01 31.7 °F 28.0 °F 30.43 in NNW 1.2 mph 1.2 mph 86 % 0.00 in
04:06 31.7 °F 28.0 °F 30.43 in NNW 1.0 mph   86 % 0.00 in
04:11 31.7 °F 28.0 °F 30.44 in Calm     86 % 0.00 in
04:16 31.6 °F 27.9 °F 30.44 in Calm     86 % 0.00 in
04:21 31.2 °F 27.5 °F 30.44 in Calm     86 % 0.00 in
04:27 30.8 °F 27.1 °F 30.44 in Calm     86 % 0.00 in
04:32 30.6 °F 27.5 °F 30.44 in Calm     88 % 0.00 in
04:37 30.8 °F 27.7 °F 30.44 in Calm     88 % 0.00 in
04:42 31.0 °F 27.9 °F 30.44 in Calm     88 % 0.00 in
04:47 31.0 °F 27.6 °F 30.44 in Calm     87 % 0.00 in
04:52 31.0 °F 27.6 °F 30.44 in Calm     87 % 0.00 in
04:57 30.8 °F 27.4 °F 30.44 in Calm     87 % 0.00 in
05:02 30.6 °F 26.9 °F 30.45 in Calm     86 % 0.00 in
05:07 30.3 °F 26.9 °F 30.45 in Calm     87 % 0.00 in
05:12 30.1 °F 26.7 °F 30.45 in Calm     87 % 0.00 in
05:17 30.0 °F 26.9 °F 30.45 in Calm     88 % 0.00 in
05:22 30.0 °F 26.9 °F 30.45 in Calm     88 % 0.00 in
05:27 30.0 °F 27.2 °F 30.45 in Calm     89 % 0.00 in
05:32 30.1 °F 27.3 °F 30.45 in Calm     89 % 0.00 in
05:37 30.2 °F 27.3 °F 30.45 in Calm     89 % 0.00 in
05:42 30.1 °F 27.3 °F 30.45 in Calm     89 % 0.00 in
05:47 30.0 °F 27.2 °F 30.45 in Calm     89 % 0.00 in
05:52 29.8 °F 27.0 °F 30.45 in Calm     89 % 0.00 in
05:57 29.8 °F 27.0 °F 30.45 in Calm     89 % 0.00 in
06:02 29.6 °F 26.8 °F 30.46 in Calm     89 % 0.00 in
06:07 29.5 °F 26.7 °F 30.45 in Calm     89 % 0.00 in
06:12 29.4 °F 26.6 °F 30.45 in Calm     89 % 0.00 in
06:17 29.4 °F 26.6 °F 30.45 in Calm     89 % 0.00 in
06:22 29.5 °F 26.7 °F 30.45 in Calm     89 % 0.00 in
06:27 29.8 °F 27.0 °F 30.45 in Calm     89 % 0.00 in
06:32 29.9 °F 26.8 °F 30.45 in Calm     88 % 0.00 in
06:37 29.8 °F 26.7 °F 30.45 in Calm     88 % 0.00 in
06:42 29.6 °F 26.2 °F 30.45 in Calm     87 % 0.00 in
06:47 29.4 °F 26.3 °F 30.45 in Calm     88 % 0.00 in
06:52 29.7 °F 26.6 °F 30.45 in Calm     88 % 0.00 in
06:57 30.1 °F 27.0 °F 30.45 in Calm     88 % 0.00 in
07:02 30.4 °F 27.3 °F 30.45 in Calm     88 % 0.00 in
07:07 30.6 °F 27.2 °F 30.46 in Calm     87 % 0.00 in
07:12 31.0 °F 27.6 °F 30.46 in Calm     87 % 0.00 in
07:17 31.5 °F 27.8 °F 30.46 in Calm     86 % 0.00 in
07:23 32.1 °F 28.4 °F 30.46 in Calm     86 % 0.00 in
07:28 32.4 °F 28.4 °F 30.46 in Calm     85 % 0.00 in
07:33 32.8 °F 28.8 °F 30.47 in Calm     85 % 0.00 in
07:38 33.7 °F 29.7 °F 30.46 in Calm     85 % 0.00 in
07:43 35.7 °F 31.0 °F 30.47 in Calm     83 % 0.00 in
07:48 37.6 °F 32.0 °F 30.47 in Calm     80 % 0.00 in
07:53 38.8 °F 32.2 °F 30.46 in Calm     77 % 0.00 in
07:58 39.7 °F 32.8 °F 30.46 in Calm     76 % 0.00 in
08:03 40.7 °F 33.1 °F 30.46 in SE 1.2 mph   74 % 0.00 in
08:08 41.7 °F 34.4 °F 30.46 in Calm     75 % 0.00 in
08:13 42.5 °F 34.1 °F 30.46 in Calm     72 % 0.00 in
08:18 43.2 °F 34.1 °F 30.46 in Calm     70 % 0.00 in
08:23 44.0 °F 33.7 °F 30.46 in Calm     67 % 0.00 in
08:28 44.4 °F 34.1 °F 30.46 in Calm     67 % 0.00 in
08:33 45.2 °F 34.5 °F 30.47 in Calm     66 % 0.00 in
08:38 45.7 °F 33.0 °F 30.46 in SSE 2.3 mph 2.3 mph 61 % 0.00 in
08:43 46.3 °F 32.7 °F 30.47 in ESE 1.2 mph 1.2 mph 59 % 0.00 in
08:48 46.2 °F 32.2 °F 30.47 in South 1.0 mph 1.0 mph 58 % 0.00 in
08:53 46.7 °F 32.7 °F 30.47 in SW 1.2 mph 1.2 mph 58 % 0.00 in
08:58 46.7 °F 31.4 °F 30.47 in North 1.2 mph 1.2 mph 55 % 0.00 in
09:03 46.3 °F 32.3 °F 30.47 in NW 2.3 mph 2.3 mph 58 % 0.00 in
09:08 46.1 °F 32.1 °F 30.46 in NNW 1.2 mph 1.2 mph 58 % 0.00 in
09:13 46.2 °F 31.8 °F 30.46 in NW 2.3 mph 2.3 mph 57 % 0.00 in
09:18 45.8 °F 31.0 °F 30.46 in NW 1.0 mph 1.0 mph 56 % 0.00 in
09:23 46.1 °F 30.8 °F 30.47 in NW 2.3 mph 2.3 mph 55 % 0.00 in
09:28 46.8 °F 31.5 °F 30.47 in NNW 2.3 mph 2.3 mph 55 % 0.00 in
09:33 47.1 °F 31.3 °F 30.47 in SSE 2.3 mph 2.3 mph 54 % 0.00 in
09:38 47.8 °F 31.9 °F 30.47 in SW 3.5 mph 3.5 mph 54 % 0.00 in
09:43 47.7 °F 30.9 °F 30.46 in NW 2.3 mph 2.3 mph 52 % 0.00 in
09:48 47.7 °F 31.4 °F 30.46 in NW 2.3 mph 2.3 mph 53 % 0.00 in
09:53 48.0 °F 31.2 °F 30.46 in NW 3.5 mph 3.5 mph 52 % 0.00 in
09:58 48.5 °F 31.7 °F 30.46 in WNW 2.0 mph 2.0 mph 52 % 0.00 in
10:03 49.1 °F 32.2 °F 30.46 in SSE 1.2 mph 1.2 mph 52 % 0.00 in
10:08 49.7 °F 31.8 °F 30.46 in WNW 2.3 mph 2.3 mph 50 % 0.00 in
10:13 49.7 °F 31.8 °F 30.46 in South 2.0 mph 2.0 mph 50 % 0.00 in
10:18 50.4 °F 32.4 °F 30.45 in SSE 3.0 mph 3.0 mph 50 % 0.00 in
10:23 50.7 °F 32.2 °F 30.45 in SSE 1.2 mph 1.2 mph 49 % 0.00 in
10:28 50.8 °F 31.8 °F 30.45 in NNW 2.3 mph 2.3 mph 48 % 0.00 in
10:33 50.4 °F 31.4 °F 30.45 in West 2.3 mph 2.3 mph 48 % 0.00 in
10:38 50.1 °F 30.6 °F 30.45 in NW 2.3 mph 2.3 mph 47 % 0.00 in
10:43 50.3 °F 31.8 °F 30.44 in NW 1.2 mph 1.2 mph 49 % 0.00 in
10:48 50.9 °F 31.9 °F 30.44 in WNW 1.2 mph 1.2 mph 48 % 0.00 in
10:53 51.2 °F 32.2 °F 30.44 in SSE 2.0 mph 2.0 mph 48 % 0.00 in
10:58 52.1 °F 31.9 °F 30.44 in WSW 1.2 mph 1.2 mph 46 % 0.00 in
11:03 51.6 °F 30.4 °F 30.44 in West 2.3 mph 2.3 mph 44 % 0.00 in
11:08 51.2 °F 30.6 °F 30.43 in West 1.2 mph 1.2 mph 45 % 0.00 in
11:13 51.5 °F 31.4 °F 30.43 in WNW 3.5 mph 3.5 mph 46 % 0.00 in
11:18 52.6 °F 33.5 °F 30.42 in SSW 1.2 mph 1.2 mph 48 % 0.00 in
11:23 53.6 °F 32.8 °F 30.42 in South 3.5 mph   45 % 0.00 in
11:28 54.1 °F 32.6 °F 30.42 in NNE 2.0 mph 2.0 mph 44 % 0.00 in
11:33 53.9 °F 30.7 °F 30.42 in NNW 1.2 mph 1.4 mph 41 % 0.00 in
11:38 53.5 °F 31.0 °F 30.41 in WNW 2.3 mph 2.3 mph 42 % 0.00 in
11:43 53.9 °F 31.9 °F 30.41 in NW 2.3 mph 2.3 mph 43 % 0.00 in
11:48 53.8 °F 30.6 °F 30.41 in West 2.3 mph 2.3 mph 41 % 0.00 in
11:53 54.1 °F 30.9 °F 30.41 in WNW 2.3 mph 2.3 mph 41 % 0.00 in
11:58 54.6 °F 31.3 °F 30.41 in NNW 2.3 mph 2.3 mph 41 % 0.00 in
12:03 54.7 °F 30.8 °F 30.40 in NW 2.3 mph 2.3 mph 40 % 0.00 in
12:08 55.2 °F 30.0 °F 30.40 in NNE 1.2 mph 1.2 mph 38 % 0.00 in
12:13 54.9 °F 29.1 °F 30.40 in NW 2.3 mph 2.3 mph 37 % 0.00 in
12:19 54.4 °F 28.6 °F 30.39 in East 1.2 mph   37 % 0.00 in
12:24 54.4 °F 29.9 °F 30.39 in SSE 1.2 mph 1.2 mph 39 % 0.00 in
12:29 55.0 °F 28.5 °F 30.39 in NW 1.2 mph 1.2 mph 36 % 0.00 in
12:34 55.0 °F 30.5 °F 30.38 in Calm     39 % 0.00 in
12:39 55.9 °F 31.3 °F 30.38 in SE 3.5 mph 3.5 mph 39 % 0.00 in
12:44 56.5 °F 30.5 °F 30.38 in East 3.5 mph 3.5 mph 37 % 0.00 in
12:49 56.7 °F 31.4 °F 30.38 in SE 1.2 mph 1.2 mph 38 % 0.00 in
12:54 56.4 °F 29.1 °F 30.38 in NW 2.3 mph 2.3 mph 35 % 0.00 in
12:59 56.2 °F 29.6 °F 30.37 in NW 3.5 mph 3.5 mph 36 % 0.00 in
13:04 56.6 °F 31.9 °F 30.37 in SSE 2.3 mph   39 % 0.00 in
13:07 57.2 °F 31.1 °F 30.37 in ENE 1.2 mph 1.2 mph 37 % 0.00 in
13:12 57.2 °F 29.8 °F 30.37 in WNW 3.5 mph 3.5 mph 35 % 0.00 in
13:17 56.7 °F 30.0 °F 30.36 in WNW 3.5 mph 3.5 mph 36 % 0.00 in
13:23 57.1 °F 29.7 °F 30.36 in NW 1.0 mph   35 % 0.00 in
13:28 56.9 °F 29.5 °F 30.36 in NW 3.0 mph 3.0 mph 35 % 0.00 in
13:30 56.8 °F 28.7 °F 30.36 in North 3.5 mph 3.5 mph 34 % 0.00 in
13:35 56.7 °F 28.6 °F 30.36 in ESE 1.2 mph 1.4 mph 34 % 0.00 in
13:40 56.9 °F 30.9 °F 30.35 in NNE 4.0 mph 4.0 mph 37 % 0.00 in
13:45 57.2 °F 29.1 °F 30.35 in West 3.5 mph 3.5 mph 34 % 0.00 in
13:46 57.2 °F 29.1 °F 30.35 in WNW 3.5 mph 3.5 mph 34 % 0.00 in
13:51 57.1 °F 28.2 °F 30.35 in NW 3.5 mph 3.5 mph 33 % 0.00 in
13:57 57.0 °F 28.9 °F 30.35 in NW 3.5 mph 3.5 mph 34 % 0.00 in
14:02 57.1 °F 28.2 °F 30.34 in NW 4.0 mph 4.0 mph 33 % 0.00 in
14:05 57.0 °F 28.1 °F 30.34 in NNW 3.5 mph 3.5 mph 33 % 0.00 in
14:10 57.5 °F 29.3 °F 30.34 in NW 3.5 mph 3.5 mph 34 % 0.00 in
14:15 57.7 °F 28.8 °F 30.34 in NW 3.5 mph 3.5 mph 33 % 0.00 in
14:20 57.6 °F 27.9 °F 30.33 in NW 2.3 mph 2.3 mph 32 % 0.00 in
14:25 57.6 °F 27.9 °F 30.33 in NW 5.8 mph 5.8 mph 32 % 0.00 in
14:26 57.6 °F 27.2 °F 30.33 in West 5.8 mph 5.8 mph 31 % 0.00 in
14:31 57.9 °F 27.4 °F 30.33 in NW 4.6 mph 4.6 mph 31 % 0.00 in
14:36 58.0 °F 28.3 °F 30.32 in WSW 3.5 mph 3.5 mph 32 % 0.00 in
14:41 58.1 °F 29.1 °F 30.32 in NW 3.5 mph 3.5 mph 33 % 0.00 in
14:42 58.1 °F 27.6 °F 30.32 in NNW 3.5 mph 3.5 mph 31 % 0.00 in
14:47 57.8 °F 27.3 °F 30.32 in West 2.3 mph 2.3 mph 31 % 0.00 in
14:52 57.7 °F 28.0 °F 30.32 in WNW 2.3 mph 2.3 mph 32 % 0.00 in
14:57 57.8 °F 27.3 °F 30.31 in NW 4.6 mph 4.6 mph 31 % 0.00 in
14:58 57.8 °F 26.5 °F 30.31 in WNW 4.6 mph 4.6 mph 30 % 0.00 in
15:03 58.0 °F 26.7 °F 30.31 in WNW 4.0 mph 4.0 mph 30 % 0.00 in
15:08 58.0 °F 26.7 °F 30.31 in North 3.5 mph 3.5 mph 30 % 0.00 in
15:13 57.8 °F 26.5 °F 30.30 in WNW 1.2 mph 1.2 mph 30 % 0.00 in
15:18 57.7 °F 27.2 °F 30.30 in NW 8.1 mph 8.1 mph 31 % 0.00 in
15:23 57.8 °F 27.3 °F 30.31 in NW 3.5 mph 3.5 mph 31 % 0.00 in
15:28 58.0 °F 28.3 °F 30.30 in NW 3.5 mph 3.5 mph 32 % 0.00 in
15:33 57.8 °F 26.5 °F 30.30 in NW 4.6 mph 4.6 mph 30 % 0.00 in
15:38 57.6 °F 26.4 °F 30.30 in NNW 3.5 mph 3.5 mph 30 % 0.00 in
15:43 57.8 °F 27.3 °F 30.30 in NE 3.5 mph 3.5 mph 31 % 0.00 in
15:48 57.5 °F 26.3 °F 30.30 in NW 4.6 mph 4.6 mph 30 % 0.00 in
15:51 57.3 °F 26.1 °F 30.30 in WNW 3.5 mph 3.5 mph 30 % 0.00 in
15:56 57.1 °F 27.5 °F 30.29 in NW 2.0 mph 2.0 mph 32 % 0.00 in
16:01 57.2 °F 27.6 °F 30.29 in NW 3.5 mph 3.5 mph 32 % 0.00 in
16:06 57.3 °F 26.9 °F 30.29 in NW 5.8 mph 5.8 mph 31 % 0.00 in
16:11 57.2 °F 26.8 °F 30.29 in West 3.5 mph 3.5 mph 31 % 0.00 in
16:16 57.1 °F 28.2 °F 30.29 in WNW 3.5 mph 3.5 mph 33 % 0.00 in
16:21 57.1 °F 27.5 °F 30.29 in NW 5.0 mph 5.0 mph 32 % 0.00 in
16:26 56.9 °F 27.3 °F 30.28 in NW 3.5 mph 3.5 mph 32 % 0.00 in
16:31 56.9 °F 28.1 °F 30.28 in NNW 7.0 mph 7.0 mph 33 % 0.00 in
16:36 56.8 °F 26.5 °F 30.28 in NW 4.6 mph 4.6 mph 31 % 0.00 in
16:41 56.7 °F 27.1 °F 30.28 in NW 2.3 mph 2.3 mph 32 % 0.00 in
16:46 56.6 °F 27.0 °F 30.28 in NW 4.6 mph 4.6 mph 32 % 0.00 in
16:51 56.5 °F 27.7 °F 30.28 in NW 3.5 mph 3.5 mph 33 % 0.00 in
16:56 56.5 °F 26.2 °F 30.27 in NW 4.0 mph 4.0 mph 31 % 0.00 in
17:01 56.2 °F 25.9 °F 30.27 in NW 3.5 mph 3.5 mph 31 % 0.00 in
17:06 56.1 °F 25.8 °F 30.27 in West 3.5 mph 3.5 mph 31 % 0.00 in
17:11 55.9 °F 27.2 °F 30.27 in NW 2.3 mph 2.3 mph 33 % 0.00 in
17:16 55.7 °F 26.3 °F 30.27 in NNW 5.8 mph 5.8 mph 32 % 0.00 in
17:21 55.5 °F 26.1 °F 30.27 in WNW 5.0 mph 5.0 mph 32 % 0.00 in
17:26 55.2 °F 26.6 °F 30.27 in WNW 2.3 mph 2.3 mph 33 % 0.00 in
17:31 54.7 °F 27.6 °F 30.27 in WNW 2.0 mph 2.0 mph 35 % 0.00 in
17:36 54.6 °F 26.0 °F 30.27 in WNW 2.3 mph 2.3 mph 33 % 0.00 in
17:41 54.3 °F 26.5 °F 30.26 in NW 1.2 mph 1.2 mph 34 % 0.00 in
17:46 53.8 °F 26.8 °F 30.26 in NW 3.5 mph 3.5 mph 35 % 0.00 in
17:51 53.4 °F 27.1 °F 30.26 in WNW 1.2 mph 1.2 mph 36 % 0.00 in
17:56 53.0 °F 28.0 °F 30.26 in West 1.0 mph 1.0 mph 38 % 0.00 in
18:01 52.3 °F 28.1 °F 30.26 in Calm     39 % 0.00 in
18:06 52.0 °F 27.1 °F 30.26 in WNW 1.2 mph   38 % 0.00 in
18:11 52.1 °F 27.2 °F 30.26 in Calm     38 % 0.00 in
18:16 52.1 °F 27.2 °F 30.26 in Calm     38 % 0.00 in
18:21 51.8 °F 27.6 °F 30.26 in Calm     39 % 0.00 in
18:26 51.3 °F 27.8 °F 30.26 in Calm     40 % 0.00 in
18:31 51.0 °F 27.5 °F 30.26 in Calm     40 % 0.00 in
18:36 51.0 °F 28.1 °F 30.26 in Calm     41 % 0.00 in
18:41 51.0 °F 28.1 °F 30.26 in Calm     41 % 0.00 in
18:46 50.6 °F 28.3 °F 30.26 in Calm     42 % 0.00 in
18:51 50.5 °F 28.2 °F 30.26 in Calm     42 % 0.00 in
18:56 50.4 °F 28.1 °F 30.26 in Calm     42 % 0.00 in
18:57 50.4 °F 28.1 °F 30.26 in Calm     42 % 0.00 in
19:02 50.0 °F 28.4 °F 30.26 in Calm     43 % 0.00 in
19:07 50.0 °F 28.4 °F 30.26 in Calm     43 % 0.00 in
19:12 50.1 °F 27.9 °F 30.27 in NNW 1.2 mph 1.2 mph 42 % 0.00 in
19:17 50.3 °F 28.1 °F 30.27 in NW 1.2 mph   42 % 0.00 in
19:22 50.2 °F 28.0 °F 30.27 in Calm     42 % 0.00 in
19:27 50.1 °F 28.4 °F 30.26 in Calm     43 % 0.00 in
19:32 49.8 °F 28.2 °F 30.27 in Calm   0.2 mph 43 % 0.00 in
19:37 49.6 °F 28.0 °F 30.27 in NNW 1.2 mph 1.2 mph 43 % 0.00 in
19:42 49.5 °F 27.9 °F 30.27 in NW 1.2 mph 1.2 mph 43 % 0.00 in
19:48 49.5 °F 27.9 °F 30.27 in NW 1.2 mph 1.2 mph 43 % 0.00 in
19:53 49.6 °F 27.4 °F 30.27 in NW 1.2 mph   42 % 0.00 in
19:57 49.6 °F 27.4 °F 30.27 in NW 2.3 mph 2.3 mph 42 % 0.00 in
20:03 49.6 °F 27.4 °F 30.27 in NNW 1.2 mph 1.2 mph 42 % 0.00 in
20:08 49.6 °F 27.4 °F 30.26 in NW 2.3 mph 2.3 mph 42 % 0.00 in
20:13 49.5 °F 26.7 °F 30.26 in Calm     41 % 0.00 in
20:18 49.5 °F 26.7 °F 30.26 in NW 1.2 mph 1.2 mph 41 % 0.00 in
20:23 49.3 °F 27.2 °F 30.26 in Calm     42 % 0.00 in
20:28 49.1 °F 27.0 °F 30.26 in Calm     42 % 0.00 in
20:33 48.9 °F 27.4 °F 30.27 in Calm     43 % 0.00 in
20:38 48.9 °F 27.4 °F 30.27 in Calm     43 % 0.00 in
20:43 48.6 °F 29.3 °F 30.27 in Calm     47 % 0.00 in
20:48 47.7 °F 30.0 °F 30.27 in Calm     50 % 0.00 in
20:53 47.0 °F 29.3 °F 30.27 in Calm     50 % 0.00 in
20:58 46.3 °F 30.5 °F 30.27 in Calm     54 % 0.00 in
21:03 45.9 °F 28.8 °F 30.27 in Calm     51 % 0.00 in
21:08 45.6 °F 29.4 °F 30.27 in Calm     53 % 0.00 in
21:13 45.1 °F 30.8 °F 30.27 in Calm     57 % 0.00 in
21:18 44.6 °F 30.7 °F 30.27 in Calm     58 % 0.00 in
21:23 44.1 °F 31.5 °F 30.27 in Calm     61 % 0.00 in
21:28 43.6 °F 31.4 °F 30.27 in Calm     62 % 0.00 in
21:33 43.0 °F 31.3 °F 30.27 in Calm     63 % 0.00 in
21:38 42.4 °F 31.1 °F 30.27 in Calm     64 % 0.00 in
21:43 42.0 °F 32.2 °F 30.27 in Calm     68 % 0.00 in
21:48 41.4 °F 32.3 °F 30.27 in Calm     70 % 0.00 in
21:53 40.8 °F 31.8 °F 30.27 in Calm     70 % 0.00 in
21:58 40.2 °F 31.9 °F 30.28 in Calm     72 % 0.00 in
22:03 39.8 °F 31.5 °F 30.27 in Calm     72 % 0.00 in
22:08 39.6 °F 31.7 °F 30.28 in Calm     73 % 0.00 in
22:13 39.7 °F 31.4 °F 30.28 in Calm     72 % 0.00 in
22:18 39.6 °F 31.3 °F 30.28 in Calm     72 % 0.00 in
22:23 39.5 °F 31.6 °F 30.28 in Calm     73 % 0.00 in
22:28 39.2 °F 31.9 °F 30.28 in Calm     75 % 0.00 in
22:33 38.7 °F 31.8 °F 30.28 in Calm     76 % 0.00 in
22:38 38.4 °F 31.2 °F 30.28 in Calm     75 % 0.00 in
22:43 38.4 °F 30.8 °F 30.28 in NNE 1.2 mph   74 % 0.00 in
22:48 38.5 °F 30.6 °F 30.28 in NNE 1.2 mph 1.2 mph 73 % 0.00 in
22:53 38.4 °F 30.2 °F 30.29 in Calm     72 % 0.00 in
22:58 38.2 °F 30.0 °F 30.29 in Calm     72 % 0.00 in
23:03 38.2 °F 29.6 °F 30.29 in Calm     71 % 0.00 in
23:08 38.1 °F 30.5 °F 30.29 in Calm     74 % 0.00 in
23:13 37.7 °F 30.5 °F 30.29 in Calm     75 % 0.00 in
23:18 37.5 °F 30.3 °F 30.29 in Calm     75 % 0.00 in
23:23 37.3 °F 30.1 °F 30.29 in NNE 1.2 mph 1.2 mph 75 % 0.00 in
23:28 37.2 °F 29.7 °F 30.29 in NNE 1.2 mph 1.2 mph 74 % 0.00 in
23:33 37.1 °F 29.6 °F 30.30 in NNE 1.2 mph 1.2 mph 74 % 0.00 in
23:38 37.1 °F 29.6 °F 30.30 in ESE 3.0 mph 3.0 mph 74 % 0.00 in
23:43 36.9 °F 29.4 °F 30.30 in Calm     74 % 0.00 in
23:48 36.8 °F 29.3 °F 30.30 in Calm     74 % 0.00 in
23:53 37.0 °F 29.5 °F 30.31 in ESE 1.2 mph 1.2 mph 74 % 0.00 in
23:58 37.3 °F 29.1 °F 30.31 in ESE 1.2 mph   72 % 0.00 in
Park Place, Exeter, Tulare County, California, USA
Compliments of Weather Underground - 2.75 mb